TimeEDT,TemperatureF,Dew PointF,Humidity,Sea Level PressureIn,VisibilityMPH,Wind Direction,Wind SpeedMPH,Gust SpeedMPH,PrecipitationIn,Events,Conditions,WindDirDegrees,DateUTC
12:51 AM,51.1,51.1,100,29.94,1.8,Calm,Calm,-,N/A,,Overcast,0,2013-05-23 04:51:00
1:29 AM,51.8,51.8,100,29.93,2.0,Calm,Calm,-,0.01,,Overcast,0,2013-05-23 05:29:00
1:47 AM,51.8,51.8,100,29.92,3.0,Calm,Calm,-,0.01,,Overcast,0,2013-05-23 05:47:00
1:51 AM,51.1,51.1,100,29.93,3.0,Calm,Calm,-,0.01,,Overcast,0,2013-05-23 05:51:00
2:51 AM,51.1,51.1,100,29.89,3.0,SE,3.5,-,N/A,,Overcast,130,2013-05-23 06:51:00
3:03 AM,51.8,51.8,100,29.88,4.0,SE,4.6,-,N/A,,Overcast,130,2013-05-23 07:03:00
3:43 AM,51.8,51.8,100,29.88,2.5,Calm,Calm,-,N/A,,Overcast,0,2013-05-23 07:43:00
3:51 AM,51.1,51.1,100,29.89,2.5,Calm,Calm,-,N/A,,Overcast,0,2013-05-23 07:51:00
4:22 AM,51.8,51.8,100,29.88,1.8,East,3.5,-,N/A,,Overcast,80,2013-05-23 08:22:00
4:51 AM,51.1,51.1,100,29.89,1.5,Calm,Calm,-,N/A,,Overcast,0,2013-05-23 08:51:00
5:09 AM,51.8,51.8,100,29.89,1.2,Calm,Calm,-,N/A,,Overcast,0,2013-05-23 09:09:00
5:43 AM,51.8,51.8,100,29.90,0.8,East,3.5,-,N/A,,Overcast,90,2013-05-23 09:43:00
5:51 AM,51.1,51.1,100,29.90,0.8,ESE,3.5,-,N/A,,Overcast,110,2013-05-23 09:51:00
6:00 AM,51.8,51.8,100,29.90,1.0,East,3.5,-,N/A,,Overcast,90,2013-05-23 10:00:00
6:43 AM,51.8,51.8,100,29.91,1.5,Calm,Calm,-,N/A,,Overcast,0,2013-05-23 10:43:00
6:51 AM,51.1,51.1,100,29.91,2.0,East,3.5,-,N/A,,Overcast,80,2013-05-23 10:51:00
7:09 AM,51.8,51.8,100,29.91,3.0,Calm,Calm,-,N/A,,Overcast,0,2013-05-23 11:09:00
7:51 AM,52.0,52.0,100,29.91,6.0,Calm,Calm,-,N/A,,Overcast,0,2013-05-23 11:51:00
8:51 AM,54.0,54.0,100,29.91,10.0,SSE,4.6,-,N/A,,Overcast,150,2013-05-23 12:51:00
9:51 AM,55.9,55.0,97,29.90,9.0,SSE,3.5,-,N/A,,Overcast,150,2013-05-23 13:51:00
10:08 AM,55.4,55.4,100,29.88,1.8,ESE,5.8,-,0.02,Rain,Heavy Rain,120,2013-05-23 14:08:00
10:21 AM,55.4,55.4,100,29.89,2.5,Calm,Calm,-,0.04,Rain,Light Rain,0,2013-05-23 14:21:00
10:51 AM,55.9,55.9,100,29.89,2.0,SE,3.5,-,0.04,,Overcast,130,2013-05-23 14:51:00
11:26 AM,57.2,57.2,100,29.88,3.0,East,3.5,-,N/A,,Overcast,100,2013-05-23 15:26:00
11:51 AM,59.0,57.9,96,29.88,5.0,SE,3.5,-,N/A,,Overcast,140,2013-05-23 15:51:00
12:22 PM,60.8,59.0,94,29.87,8.0,SSE,8.1,-,N/A,,Overcast,160,2013-05-23 16:22:00
12:51 PM,63.0,60.1,90,29.86,10.0,SSE,5.8,-,N/A,,Overcast,160,2013-05-23 16:51:00
1:51 PM,68.0,63.0,84,29.83,10.0,SSE,9.2,-,N/A,,Mostly Cloudy,150,2013-05-23 17:51:00
2:10 PM,69.8,64.4,83,29.82,10.0,SE,8.1,-,N/A,,Scattered Clouds,140,2013-05-23 18:10:00
2:20 PM,69.8,64.4,83,29.82,9.0,SE,5.8,-,N/A,,Mostly Cloudy,140,2013-05-23 18:20:00
2:29 PM,69.8,64.4,83,29.82,9.0,SSE,10.4,-,N/A,,Mostly Cloudy,160,2013-05-23 18:29:00
2:37 PM,69.8,64.4,83,29.82,9.0,SSE,8.1,-,N/A,,Mostly Cloudy,160,2013-05-23 18:37:00
2:51 PM,69.1,64.9,87,29.83,9.0,South,9.2,-,N/A,,Mostly Cloudy,170,2013-05-23 18:51:00
3:33 PM,71.6,66.2,83,29.82,10.0,South,5.8,-,0.00,Thunderstorm,Overcast,180,2013-05-23 19:33:00
3:51 PM,71.1,68.0,90,29.83,6.0,Calm,Calm,-,0.01,Rain,Light Rain,0,2013-05-23 19:51:00
4:17 PM,69.8,68.0,94,29.83,5.0,Variable,3.5,-,0.01,Rain-Thunderstorm,Light Rain,0,2013-05-23 20:17:00
4:35 PM,71.6,68.0,88,29.82,8.0,SSE,5.8,-,0.02,Rain,Light Rain,160,2013-05-23 20:35:00
4:51 PM,70.0,68.0,93,29.81,6.0,SSE,4.6,-,0.02,Rain,Light Rain,160,2013-05-23 20:51:00
5:51 PM,69.1,68.0,96,29.82,6.0,South,5.8,-,0.01,Rain,Light Rain,170,2013-05-23 21:51:00
6:31 PM,68.0,66.2,94,29.81,5.0,South,5.8,-,0.01,Rain,Light Rain,190,2013-05-23 22:31:00
6:51 PM,68.0,66.9,96,29.82,4.0,South,6.9,-,0.02,Rain,Light Rain,180,2013-05-23 22:51:00
7:24 PM,68.0,66.2,94,29.82,4.0,South,9.2,-,0.06,Rain,Light Rain,180,2013-05-23 23:24:00
7:51 PM,66.9,66.0,97,29.82,5.0,SSE,9.2,-,0.10,Rain,Light Rain,160,2013-05-23 23:51:00
8:51 PM,66.0,64.9,96,29.82,9.0,South,6.9,-,0.04,Rain,Light Rain,170,2013-05-24 00:51:00
9:47 PM,66.2,64.4,94,29.81,10.0,SSE,9.2,-,0.01,,Overcast,160,2013-05-24 01:47:00
9:51 PM,66.0,64.9,96,29.81,10.0,South,6.9,-,0.01,Rain,Light Rain,170,2013-05-24 01:51:00
10:25 PM,66.2,64.4,94,29.80,8.0,SSE,8.1,-,0.00,Rain,Light Rain,160,2013-05-24 02:25:00
10:51 PM,64.9,64.9,100,29.79,8.0,SSE,8.1,-,0.02,Rain,Light Rain,160,2013-05-24 02:51:00
11:05 PM,64.4,64.4,100,29.77,10.0,SSE,8.1,-,0.00,,Overcast,160,2013-05-24 03:05:00
11:51 PM,64.9,64.9,100,29.78,10.0,South,10.4,-,0.00,,Overcast,170,2013-05-24 03:51:00